Flag for U.S.A. Weather past 2 weeks in Salina, Kansas, U.S.A.

Now
76 °F

Overcast.


Feels Like: 77 °F
Forecast: 72 / 88 °F
Wind: 14 mph from South

Location: Salina Municipal Airport

Current Time: Aug 28, 2015 at 3:27:46 AM

Latest Report: Aug 28, 2015 at 2:53 AM


Visibility: 10 mi

Pressure: 29.87 "Hg

Humidity: 74%

Dew point: 67 °F

Location of SalinaLocation

Historic Weather in Salina — Graph

°F

Salina temperature yesterday

Maximum temperature yesterday: 89 °F (at 3:53 PM)
Minimum temperature yesterday: 72 °F (at 5:53 AM)
Average temperature yesterday: 80 °F

Past Weeks' High & Low Weather Summary

 TemperatureHumidityPressure
High94 °F (Aug 16, 2:53 PM)90% (Aug 13, 4:53 AM)30.21 "Hg (Aug 13, 4:53 AM)
Low53 °F (Aug 20, 4:53 AM)25% (Aug 24, 3:53 PM)29.68 "Hg (Aug 18, 1:53 PM)
Average75 °F61%29.98 "Hg
* Reported Aug 13 1:53 AM — Aug 28 1:53 AM, Salina, Weather by CustomWeather, © 2015

Note: Actual official high and low records may vary slightly from our data, if they occured in-between our weather recording intervals... More about our weather records

Advertising

Salina weather history for previous 24 hours

 ConditionsComfort  
Time TempWeatherWind HumidityBarometerVisibility
1:53 AM
Fri, Aug 28
76 °FThundershowers. Overcast.9 mph77%29.87 "Hg10 mi
12:53 AM76 °FPassing clouds.17 mph80%29.87 "Hg10 mi
11:53 PM
Thu, Aug 27
75 °FThundershowers. Mostly cloudy.17 mph82%29.88 "Hg8 mi
10:53 PM78 °FThundershowers. Passing clouds.No wind71%29.92 "Hg10 mi
9:53 PM80 °FLight rain. Passing clouds.15 mph64%29.85 "Hg10 mi
8:53 PM83 °FSunny.17 mph55%29.82 "Hg10 mi
7:53 PM84 °FSunny.16 mph51%29.82 "Hg10 mi
6:53 PM86 °FSunny.17 mph49%29.84 "Hg10 mi
5:53 PM89 °FSunny.22 mph46%29.83 "Hg10 mi
4:53 PM88 °FSunny.21 mph45%29.85 "Hg10 mi
3:53 PM89 °FSunny.25 mph46%29.87 "Hg10 mi
2:53 PM86 °FSunny.26 mph51%29.89 "Hg10 mi
1:53 PM86 °FSunny.24 mph55%29.91 "Hg10 mi
12:53 PM86 °FSunny.22 mph55%29.92 "Hg10 mi
11:53 AM85 °FSunny.18 mph59%29.93 "Hg10 mi
10:53 AM84 °FSunny.16 mph63%29.93 "Hg10 mi
9:53 AM80 °FSunny.14 mph69%29.93 "Hg10 mi
8:53 AM76 °FSunny.10 mph80%29.94 "Hg10 mi
7:53 AM73 °FClear.7 mph84%29.93 "Hg8 mi
6:53 AM72 °FClear.7 mph87%29.94 "Hg9 mi
5:53 AM72 °FClear.7 mph87%29.95 "Hg9 mi
4:53 AM73 °FClear.9 mph88%29.95 "Hg9 mi
3:53 AM74 °FClear.10 mph85%29.95 "Hg10 mi
Weather by CustomWeather, © 2015

See weather overviewHow to use our weather pages